STARLINK-1312, 45398

Orbit data source: Space-Track

STARLINK-1312, 45398 is a payload satellite owned by SpaceX/Seattle (US) in LEO that was launched on Wed, 18 Mar 2020 UTC via an FALCON 9 launch vehicle from the Air Force Eastern Test Range (AFETR). Payload-class satellites include a variety of spacecraft equipped with specific instruments for various scientific and technological missions. These include communications satellites like Starlink; space stations such as the ISS; scientific satellites like the Hubble; Earth observation satellites from companies like Planet Labs, Umbra, and HawkEye 360; GPS; miniature CubeSats for education and research; and military/defense satellites.

Not visible in the next 10 days
Identifier
45398, 2020-019AQ
Orbit
LEO
Country
Flag of USUS
Related business
Manufacturer
SpaceX/Seattle
Mission
Partially operational Commercial Communications
Bus & Motor
STARLINK, Unknown motor
Mass
260 kg wet, ~248 kg dry
Launch date (UTC)
2020-03-18 (6 years ago)
Launch vehicle
FALCON 9
Launch site
Air Force Eastern Test Range (AFETR)
Object type
Payload
Rocket body
Debris
Shape & HBR
Box + 1 Pan, 10.1 m
Radar Cross Section
13.562 m², Large (>1 m²)

Expand to show TLE details & history
Last TLE update: 5 hours ago

TLE from 5 hours ago
0 STARLINK-1312
1 45398U 20019AQ  25314.14628060  .05673383  12110-4  98124-3 0  9994
2 45398  53.0301 265.2641 0003716 216.6933 143.3855 16.32167501312553
Epoch: 2025-11-10T03:30Z
TLE epoch observation values (Epoch: 2025-11-10T03:30:38.643Z)
Latitude
-0.00012°
Longitude
163.05162°
Altitude
189.604 km
Speed
7.793 km/s
True Right ascension
17h 41m 03s
True Declination
0° 00' 00"
Sunlit
Object was in daylight at epoch
Visualization orbit readout
Latitude
Unknown
Longitude
Unknown
Altitude
Unknown
Speed
Unknown
Apparent Right ascension
Unknown
Apparent Declination
Unknown
Sunlit
N/A
Visualization observer readout
Local Sidereal Time
04:29:19
Azimuth
Unknown
Elevation
Unknown
Doppler factor
Unknown
Orbital elements
Apogee altitude
189.45 km
Perigee altitude
184.571 km
Semi-major axis
6,565.148 km
Eccentricity
0.00037
Inclination
53.0301°
RAAN
265.2641°
Arg. of periapsis
216.6933°
True anomaly
143.41089°
Mean anomaly
143.3855°
Eccentric anomaly
143.39819°
Mean motion
4.08015 °/min
Orbital period
88.23 mins
BSTAR
0.00098124
Loading maneuver chart data...
Computing Atmospheric mass density...
Loading historical data...
Loading historical data...
Loading historical data...
Loading historical data...
Loading historical data...
Loading historical data...
Loading historical data...

Documentation

Showing up to 5 results
|